Location: Eindhoven
(51.4416°N, 5.4697°E)
Time: 00:24:50
(UTC+01:00)

A-11 Canister half - All Passes

Search period start: 22 November 2019 00:00
Search period end: 02 December 2019 00:00
Orbit: 1527 x 1682 km, 47.3° (Epoch: 21 November)

Date Brightness Start Highest point End Pass type
(mag) Time Alt. Az. Time Alt. Az. Time Alt. Az.
22 Nov - 10:30:30 10° S 10:38:34 29° SE 10:46:31 10° E daylight
22 Nov - 12:32:34 10° SW 12:42:17 58° SSE 12:51:44 10° E daylight
22 Nov - 14:37:00 10° W 14:46:52 70° S 14:56:22 10° ESE daylight
22 Nov - 16:41:56 10° W 16:51:15 51° SSW 17:00:14 10° SE daylight
22 Nov - 18:47:49 10° W 18:54:30 22° SW 19:01:05 10° S visible
23 Nov - 10:09:03 10° S 10:17:01 28° SE 10:24:49 10° E daylight
23 Nov - 12:10:58 10° SW 12:20:40 57° SSE 12:30:06 10° E daylight
23 Nov - 14:15:21 10° W 14:25:14 71° S 14:34:46 10° E daylight
23 Nov - 16:20:17 10° W 16:29:39 52° SSW 16:38:42 10° SE daylight
23 Nov - 18:26:02 10° W 18:32:59 23° SW 18:39:47 10° S visible
24 Nov - 09:47:39 10° S 09:55:26 26° SE 10:03:07 10° E daylight
24 Nov - 11:49:21 10° SW 11:59:03 55° SSE 12:08:29 10° E daylight
24 Nov - 13:53:42 10° W 14:03:35 71° S 14:13:10 10° E daylight
24 Nov - 15:58:37 10° W 16:08:03 54° SSW 16:17:10 10° SE daylight
24 Nov - 18:04:17 10° W 18:11:26 24° SW 18:18:27 10° S visible
25 Nov - 09:26:14 10° S 09:33:53 25° SE 09:41:23 10° E daylight
25 Nov - 11:27:45 10° SW 11:37:26 54° SSE 11:46:52 10° E daylight
25 Nov - 13:32:01 10° W 13:41:57 71° S 13:51:33 10° E daylight
25 Nov - 15:36:56 10° W 15:46:27 55° SSW 15:55:38 10° SE daylight
25 Nov - 17:42:32 10° W 17:49:54 25° SW 17:57:07 10° S visible
26 Nov - 09:04:51 10° S 09:12:18 24° SE 09:19:40 10° E daylight
26 Nov - 11:06:10 10° SW 11:15:49 53° SSE 11:25:14 10° E daylight
26 Nov - 13:10:22 10° W 13:20:19 71° S 13:29:56 10° E daylight
26 Nov - 15:15:17 10° W 15:24:50 56° SSW 15:34:04 10° SE daylight
26 Nov - 17:20:47 10° W 17:28:21 27° SW 17:35:46 10° S visible
27 Nov - 08:43:28 10° S 08:50:45 23° SE 08:57:56 10° E daylight
27 Nov - 10:44:34 10° SW 10:54:12 52° SSE 11:03:36 10° E daylight
27 Nov - 12:48:43 10° WSW 12:58:40 71° S 13:08:20 10° E daylight
27 Nov - 14:53:37 10° W 15:03:14 58° SSW 15:12:31 10° SE daylight
27 Nov - 16:59:03 10° W 17:06:49 28° SW 17:14:23 10° S visible
28 Nov - 08:22:08 10° S 08:29:12 22° SE 08:36:10 10° E daylight
28 Nov - 10:22:59 10° SW 10:32:34 50° SSE 10:41:58 10° E daylight
28 Nov - 12:27:02 10° WSW 12:37:02 70° S 12:46:43 10° E daylight
28 Nov - 14:31:56 10° W 14:41:37 59° SSW 14:50:58 10° SE daylight
28 Nov - 16:37:20 10° W 16:45:15 29° SW 16:53:00 10° SSE daylight
29 Nov - 08:00:48 10° S 08:07:38 21° SE 08:14:24 10° E daylight
29 Nov - 10:01:25 10° SW 10:10:58 49° SSE 10:20:20 10° E daylight
29 Nov - 12:05:24 10° WSW 12:15:23 70° S 12:25:06 10° E daylight
29 Nov - 14:10:17 10° W 14:20:00 60° SSW 14:29:23 10° ESE daylight
29 Nov - 16:15:37 10° W 16:23:42 30° SW 16:31:36 10° SSE daylight
30 Nov - 07:39:30 10° S 07:46:05 20° SE 07:52:37 10° E visible
30 Nov - 09:39:50 10° SW 09:49:21 48° SSE 09:58:41 10° E daylight
30 Nov - 11:43:44 10° WSW 11:53:45 70° S 12:03:29 10° E daylight
30 Nov - 13:48:37 10° W 13:58:23 61° SSW 14:07:49 10° ESE daylight
30 Nov - 15:53:53 10° W 16:02:09 32° SW 16:10:10 10° SSE daylight
01 Dec - 07:18:13 10° SSE 07:24:32 19° SE 07:30:48 10° E visible
01 Dec - 09:18:16 10° SW 09:27:44 47° SSE 09:37:02 10° E daylight
01 Dec - 11:22:04 10° WSW 11:32:06 69° S 11:41:51 10° E daylight
01 Dec - 13:26:56 10° W 13:36:45 62° SSW 13:46:15 10° ESE daylight
01 Dec - 15:32:11 10° W 15:40:34 33° SW 15:48:45 10° SSE daylight
